Weather History for KPSO - January, 2014

Change the Weather History Date:

Thursday, January 30, 2014

  Actual Average (KDRO) Record (KDRO)
Temperature  
Mean Temperature 32 °F 25 °F  
Max Temperature 37 °F 39 °F - ()
Min Temperature 28 °F 11 °F - ()
Degree Days  
Heating Degree Days 33 40  
Month to date heating degree days 1244  
Since 1 July heating degree days 4118  
Cooling Degree Days 0 0  
Month to date cooling degree days 0  
Year to date cooling degree days 0  
Moisture  
Dew Point 29 °F    
Average Humidity 87    
Maximum Humidity 100    
Minimum Humidity 49    
Precipitation  
Precipitation 0.00 in 0.03 in - ()
Month to date precipitation 1.08  
Year to date precipitation 1.08  
Sea Level Pressure  
Sea Level Pressure 29.85 in    
Wind  
Wind Speed 1 mph (NE)    
Max Wind Speed 10 mph    
Max Gust Speed 16 mph    
Visibility 7 miles    
Events Snow    
T = Trace of Precipitation, MM = Missing Value Source: NWS Daily Summary

Daily Weather History Graph

Daily Weather History Graph

Search for Another Location

Airport or City:

Trip Planner

Search our weather history database for the weather conditions in past years. The results will help you decide how hot, cold, wet, or windy it might be!

Date:

Astronomy

Jan. 30, 2014 Rise Set
Actual Time 7:12 AM MST 5:30 PM MST
Civil Twilight 6:45 AM MST 5:58 PM MST
Nautical Twilight 6:14 AM MST 6:29 PM MST
Astronomical Twilight 5:43 AM MST 7:00 PM MST
Moon 6:41 AM MST (1/30) 5:44 PM MST (1/30)
Length of Visible Light 11h 13m
Length of Day
10h 17m
Waning Crescent, 0% of the Moon is Illuminated
Jan 30
Waning Crescent
Jan 30
New
Feb 6
First Quarter
Feb 14
Full
Feb 22
Last Quarter

Hourly Weather History & Observations

Time (MST) Temp. Windchill Dew Point Humidity Pressure Visibility Wind Dir Wind Speed Gust Speed Precip Events Conditions
12:15 AM 30.4 °F - 16.0 °F 55% 29.96 in 10.0 mi Calm Calm - N/A   Overcast
12:35 AM 31.6 °F - 14.4 °F 49% 29.94 in 10.0 mi Calm Calm - N/A   Overcast
12:55 AM 30.4 °F - 17.8 °F 60% 29.94 in 10.0 mi Calm Calm - N/A   Overcast
1:15 AM 30.4 °F - 17.2 °F 58% 29.93 in 10.0 mi Calm Calm - N/A   Overcast
1:35 AM 31.5 °F - 17.6 °F 57% 29.94 in 10.0 mi Calm Calm - N/A   Overcast
1:55 AM 30.9 °F - 18.5 °F 60% 29.93 in 10.0 mi Calm Calm - N/A   Overcast
2:15 AM 31.3 °F 27.9 °F 16.7 °F 55% 29.93 in 10.0 mi ENE 3.5 mph - N/A   Overcast
2:35 AM 31.6 °F - 14.9 °F 50% 29.93 in 10.0 mi Calm Calm - N/A   Overcast
2:55 AM 32.0 °F - 17.1 °F 54% 29.94 in 5.0 mi Calm Calm - N/A Snow Light Snow
3:15 AM 31.1 °F - 21.7 °F 68% 29.95 in 5.0 mi Calm Calm - N/A Snow Light Snow
3:35 AM 28.4 °F - 26.6 °F 93% 29.93 in 1.2 mi Calm Calm - N/A Snow Light Snow
3:55 AM 28.4 °F - 27.5 °F 96% 29.94 in 1.2 mi Calm Calm - N/A Snow Snow
4:15 AM 28.6 °F - 28.2 °F 99% 29.93 in 1.2 mi Calm Calm - N/A Snow Snow
4:35 AM 29.1 °F - 28.9 °F 99% 29.92 in 1.0 mi Calm Calm - N/A Snow Snow
4:55 AM 29.3 °F - 29.3 °F 100% 29.91 in 1.0 mi Calm Calm - N/A Snow Snow
5:15 AM 29.7 °F 23.7 °F 29.3 °F 99% 29.90 in 1.8 mi NNE 5.8 mph - N/A Snow Light Snow
5:35 AM 29.8 °F 24.9 °F 29.7 °F 99% 29.90 in 4.0 mi NNE 4.6 mph - N/A Snow Light Snow
5:55 AM 29.8 °F - 29.5 °F 99% 29.90 in 10.0 mi Calm Calm - N/A   Overcast
6:15 AM 30.2 °F - 29.8 °F 99% 29.90 in 10.0 mi Calm Calm - N/A   Overcast
6:35 AM 30.0 °F - 29.1 °F 96% 29.89 in 10.0 mi Calm Calm - N/A   Overcast
6:55 AM 29.8 °F - 29.1 °F 97% 29.89 in 10.0 mi Calm Calm - N/A   Overcast
7:15 AM 29.7 °F - 28.9 °F 97% 29.89 in 10.0 mi Calm Calm - N/A   Overcast
7:35 AM 30.2 °F - 29.3 °F 96% 29.88 in 10.0 mi Calm Calm - N/A   Overcast
7:55 AM 30.7 °F - 28.6 °F 92% 29.89 in 10.0 mi Calm Calm - N/A   Overcast
8:15 AM 30.4 °F - 28.8 °F 94% 29.89 in 10.0 mi Calm Calm - N/A   Mostly Cloudy
8:35 AM 30.0 °F - 28.4 °F 94% 29.89 in 10.0 mi Calm Calm - N/A   Scattered Clouds
8:55 AM 30.7 °F - 28.6 °F 92% 29.90 in 10.0 mi Calm Calm - N/A   Clear
9:15 AM 31.8 °F - 29.3 °F 90% 29.90 in 10.0 mi Calm Calm - N/A   Clear
9:35 AM 32.9 °F - 28.0 °F 82% 29.90 in 10.0 mi Calm Calm - N/A   Scattered Clouds
9:55 AM 32.9 °F - 27.5 °F 81% 29.91 in 10.0 mi Calm Calm - N/A   Overcast
10:15 AM 33.6 °F - 28.0 °F 80% 29.92 in 10.0 mi Calm Calm - N/A   Overcast
10:35 AM 34.9 °F - 27.1 °F 73% 29.91 in 10.0 mi Calm Calm - N/A   Overcast
10:55 AM 36.0 °F - 26.2 °F 68% 29.90 in 10.0 mi Calm Calm - N/A   Overcast
11:15 AM 35.8 °F - 26.1 °F 68% 29.90 in 10.0 mi Calm Calm - N/A   Overcast
11:35 AM 36.0 °F - 26.1 °F 67% 29.89 in 10.0 mi Calm Calm - N/A   Overcast
11:55 AM 36.7 °F - 26.2 °F 66% 29.88 in 10.0 mi Calm Calm - N/A   Overcast
12:15 PM 36.5 °F - 29.5 °F 76% 29.86 in 10.0 mi Calm Calm - N/A   Overcast
12:35 PM 36.1 °F - 27.0 °F 69% 29.85 in 10.0 mi Calm Calm - N/A   Overcast
12:55 PM 36.1 °F 33.5 °F 28.0 °F 72% 29.85 in 10.0 mi NNE 3.5 mph - N/A   Overcast
1:15 PM 35.4 °F 31.5 °F 27.7 °F 73% 29.84 in 5.0 mi North 4.6 mph - N/A Snow Light Snow
1:35 PM 34.0 °F 29.8 °F 31.3 °F 90% 29.84 in 5.0 mi NNE 4.6 mph - N/A Snow Light Snow
1:55 PM 34.2 °F 28.2 °F 32.0 °F 92% 29.83 in 3.0 mi NNE 6.9 mph - N/A Snow Light Snow
2:15 PM 34.5 °F 29.4 °F 32.0 °F 90% 29.83 in 4.0 mi NNE 5.8 mph - N/A Snow Light Snow
2:35 PM 34.7 °F 30.6 °F 32.2 °F 91% 29.82 in 5.0 mi NNE 4.6 mph - N/A Snow Light Snow
2:55 PM 34.9 °F 32.0 °F 32.4 °F 91% 29.82 in 5.0 mi ENE 3.5 mph - N/A Snow Light Snow
3:15 PM 34.9 °F - 32.9 °F 92% 29.81 in 7.0 mi Calm Calm - N/A   Overcast
3:35 PM 34.7 °F - 32.4 °F 91% 29.82 in 10.0 mi Calm Calm - N/A   Overcast
3:55 PM 34.7 °F 31.8 °F 32.9 °F 93% 29.80 in 10.0 mi East 3.5 mph - N/A Snow Light Snow
4:15 PM 34.7 °F - 32.5 °F 92% 29.80 in 10.0 mi Calm Calm - N/A   Overcast
4:35 PM 34.5 °F - 32.7 °F 93% 29.80 in 2.0 mi Calm Calm - N/A Snow Light Snow
4:55 PM 34.2 °F - 33.3 °F 97% 29.80 in 1.0 mi Calm Calm - N/A Snow Light Snow
5:15 PM 34.0 °F - 33.4 °F 98% 29.80 in 1.2 mi Calm Calm - N/A Snow Light Snow
5:35 PM 33.4 °F - 33.1 °F 99% 29.78 in 2.0 mi Calm Calm - N/A Snow Light Snow
5:55 PM 33.3 °F - 33.1 °F 99% 29.78 in 1.5 mi Calm Calm - N/A Snow Light Snow
6:15 PM 33.1 °F - 33.1 °F 100% 29.77 in 1.0 mi Calm Calm - N/A Snow Snow
6:35 PM 33.1 °F - 33.1 °F 100% 29.76 in 1.2 mi Calm Calm - N/A Snow Snow
6:55 PM 33.1 °F - 33.1 °F 100% 29.78 in 0.8 mi Calm Calm - N/A Snow Snow
7:15 PM 33.1 °F - 33.1 °F 100% 29.76 in 1.0 mi Calm Calm - N/A Snow Snow
7:35 PM 33.1 °F 30.0 °F 33.1 °F 100% 29.76 in 1.0 mi South 3.5 mph - N/A Snow Snow
7:55 PM 33.6 °F 26.8 °F 33.6 °F 100% 29.74 in 2.0 mi SSW 8.1 mph - N/A Snow Light Snow
8:15 PM 33.3 °F - 33.3 °F 100% 29.74 in 2.5 mi Calm Calm - N/A Snow Light Snow
8:35 PM 33.3 °F - 33.3 °F 100% 29.73 in 3.0 mi Calm Calm - N/A Snow Light Snow
8:55 PM 32.9 °F 27.5 °F 32.9 °F 100% 29.72 in 2.5 mi NE 5.8 mph - N/A Snow Light Snow
9:15 PM 32.9 °F 29.8 °F 32.9 °F 100% 29.73 in 7.0 mi ENE 3.5 mph - N/A Snow Light Snow
9:35 PM 33.1 °F - 33.1 °F 100% 29.72 in 3.0 mi Calm Calm - N/A Snow Light Snow
9:55 PM 32.7 °F - 32.7 °F 100% 29.72 in 10.0 mi Calm Calm - N/A   Overcast
10:15 PM 32.9 °F - 32.9 °F 100% 29.72 in 10.0 mi Calm Calm - N/A Snow Light Snow
10:35 PM 32.5 °F - 32.5 °F 100% 29.73 in 7.0 mi Calm Calm - N/A Snow Light Snow
10:55 PM 34.7 °F 30.6 °F 34.7 °F 100% 29.73 in 10.0 mi WSW 4.6 mph - N/A   Overcast
11:15 PM 36.1 °F 31.4 °F 32.4 °F 86% 29.72 in 10.0 mi SW 5.8 mph - N/A   Overcast
11:35 PM 36.9 °F 29.6 °F 32.0 °F 83% 29.72 in 7.0 mi WSW 10.4 mph 16.1 mph N/A Snow Light Snow
11:55 PM 37.0 °F 31.0 °F 32.2 °F 83% 29.71 in 10.0 mi SW 8.1 mph - N/A   Overcast